Pineville, WV

1:51 AM EDT on June 25, 2017 (GMT -0400)
Pineville

Weather History for KI16 - May, 2013

Change the Weather History Date:

Monday, May 6, 2013

  Actual Average (KBKW) Record (KBKW)
Temperature  
Mean Temperature 56 °F -  
Max Temperature 62 °F 68 °F 88 °F (1950)
Min Temperature 50 °F 46 °F 29 °F (1957)
Degree Days  
Heating Degree Days 9    
Growing Degree Days 6 (Base 50)    
Moisture  
Dew Point 54 °F    
Average Humidity 88    
Maximum Humidity 100    
Minimum Humidity 78    
Precipitation  
Precipitation 0.00 in - - ()
Sea Level Pressure  
Sea Level Pressure 29.95 in    
Wind  
Wind Speed - (North)    
Max Wind Speed -    
Max Gust Speed -    
Visibility 9 miles    
Events Fog , Rain    
Averages and records for this station are not official NWS values.
T = Trace of Precipitation, MM = Missing Value Source: NWS Daily Summary

Daily Weather History Graph

Daily Weather History Graph

Search for Another Location

Airport or City:

Trip Planner

Search our weather history database for the weather conditions in past years. The results will help you decide how hot, cold, wet, or windy it might be!

Date:

Astronomy

May. 06, 2013 Rise Set
Actual Time 6:25 AM EDT 8:21 PM EDT
Civil Twilight 5:56 AM EDT 8:49 PM EDT
Nautical Twilight 5:21 AM EDT 9:24 PM EDT
Astronomical Twilight 4:44 AM EDT 10:02 PM EDT
Moon 4:22 AM EDT (5/6) 5:22 PM EDT (5/6)
Length of Visible Light 14h 53m
Length of Day
13h 56m
Waning Crescent, 11% of the Moon is Illuminated
May 6
Waning Crescent
May 9
New
May 18
First Quarter
May 25
Full
May 31
Last Quarter

Hourly Weather History & Observations

Time (EDT) Temp. Dew Point Humidity Pressure Visibility Wind Dir Wind Speed Gust Speed Precip Events Conditions
12:15 AM 56.7 °F 50.4 °F 79% 29.97 in 10.0 mi North - - N/A   Mostly Cloudy
12:35 AM 57.0 °F 50.5 °F 79% 29.98 in 10.0 mi North - - N/A   Mostly Cloudy
12:55 AM 57.2 °F 50.4 °F 78% 29.97 in 10.0 mi North - - N/A   Overcast
1:15 AM 57.2 °F 50.5 °F 78% 29.96 in 10.0 mi North - - N/A   Overcast
1:35 AM 57.4 °F 50.9 °F 79% 29.96 in 10.0 mi North - - N/A   Overcast
1:55 AM 57.4 °F 50.9 °F 79% 29.97 in 10.0 mi North - - N/A   Overcast
2:15 AM 57.7 °F 50.9 °F 78% 29.96 in 10.0 mi North - - N/A   Overcast
2:35 AM 57.6 °F 50.9 °F 78% 29.94 in 10.0 mi North - - N/A   Mostly Cloudy
2:55 AM 57.6 °F 50.9 °F 78% 29.92 in 10.0 mi North - - N/A   Mostly Cloudy
3:15 AM 57.4 °F 50.9 °F 79% 29.92 in 10.0 mi North - - N/A   Scattered Clouds
3:35 AM 57.2 °F 50.9 °F 79% 29.92 in 10.0 mi North - - N/A   Scattered Clouds
3:55 AM 57.2 °F 50.9 °F 79% 29.92 in 10.0 mi North - - N/A   Clear
4:15 AM 57.2 °F 50.9 °F 79% 29.93 in 10.0 mi North - - N/A   Scattered Clouds
4:35 AM 57.2 °F 51.3 °F 81% 29.93 in 10.0 mi North - - N/A   Mostly Cloudy
4:55 AM 56.7 °F 51.8 °F 84% 29.93 in 10.0 mi North - - N/A   Light Drizzle
5:15 AM 56.3 °F 51.4 °F 84% 29.93 in 10.0 mi North - - N/A   Scattered Clouds
5:35 AM 56.7 °F 51.4 °F 83% 29.93 in 10.0 mi North - - N/A   Mostly Cloudy
5:55 AM 57.2 °F 51.8 °F 82% 29.93 in 10.0 mi North - - N/A   Overcast
6:15 AM 57.0 °F 51.8 °F 83% 29.93 in 10.0 mi North - - N/A   Overcast
6:35 AM 57.2 °F 51.8 °F 82% 29.92 in 10.0 mi North - - N/A   Overcast
6:55 AM 57.4 °F 51.8 °F 82% 29.93 in 10.0 mi North - - N/A   Overcast
7:15 AM 57.9 °F 52.2 °F 81% 29.94 in 10.0 mi North - - N/A   Overcast
7:35 AM 58.3 °F 52.7 °F 82% 29.93 in 10.0 mi North - - N/A   Overcast
7:55 AM 58.5 °F 52.7 °F 81% 29.94 in 10.0 mi North - - N/A   Overcast
8:15 AM 59.4 °F 53.1 °F 80% 29.94 in 10.0 mi North - - N/A   Overcast
8:35 AM 59.0 °F 52.9 °F 80% 29.95 in 10.0 mi North - - N/A   Overcast
8:55 AM 58.1 °F 54.0 °F 86% 29.94 in 7.0 mi North - - N/A Rain Light Rain
9:15 AM 58.3 °F 54.7 °F 88% 29.95 in 7.0 mi North - - N/A   Overcast
9:35 AM 58.5 °F 54.1 °F 86% 29.95 in 10.0 mi North - - N/A Rain Light Rain
9:55 AM 58.3 °F 54.5 °F 87% 29.96 in 7.0 mi North - - N/A   Drizzle
10:15 AM 57.7 °F 54.5 °F 89% 29.96 in 10.0 mi North - - N/A Rain Light Rain
10:35 AM 59.9 °F 55.4 °F 85% 29.95 in 10.0 mi North - - N/A   Overcast
10:55 AM 61.2 °F 54.7 °F 79% 29.96 in 10.0 mi North - - N/A   Overcast
11:15 AM 61.5 °F 55.8 °F 81% 29.97 in 10.0 mi North - - N/A Rain Light Rain
11:35 AM 60.8 °F 56.1 °F 85% 29.97 in 10.0 mi North - - N/A Rain Light Rain
11:55 AM 60.8 °F 56.3 °F 85% 29.97 in 10.0 mi North - - N/A   Overcast
12:15 PM 61.0 °F 55.2 °F 81% 29.97 in 10.0 mi North - - N/A   Overcast
1:15 PM 57.9 °F 55.8 °F 92% 29.96 in 3.0 mi North - - N/A Rain Rain
1:55 PM 62.1 °F 58.3 °F 87% 29.95 in 10.0 mi North - - N/A   Overcast
2:15 PM 61.5 °F 57.0 °F 85% 29.96 in 10.0 mi North - - N/A Rain Light Rain
2:35 PM 60.4 °F 57.0 °F 88% 29.96 in 10.0 mi North - - N/A   Light Drizzle
2:55 PM 59.9 °F 56.5 °F 88% 29.96 in 10.0 mi North - - N/A Rain Light Rain
3:15 PM 60.1 °F 57.0 °F 90% 29.96 in 10.0 mi North - - N/A Rain Light Rain
3:35 PM 60.3 °F 57.2 °F 90% 29.96 in 10.0 mi North - - N/A   Overcast
3:55 PM 59.5 °F 57.2 °F 92% 29.95 in 10.0 mi North - - N/A Rain Rain
4:15 PM 59.0 °F 57.0 °F 93% 29.95 in 10.0 mi North - - N/A Rain Light Rain
4:35 PM 58.6 °F 56.8 °F 94% 29.94 in 5.0 mi North - - N/A Rain Rain
4:55 PM 59.0 °F 57.7 °F 96% 29.93 in 5.0 mi North - - N/A Rain Light Rain
5:15 PM 60.8 °F 58.1 °F 91% 29.93 in 10.0 mi North - - N/A   Overcast
5:35 PM 59.9 °F 57.6 °F 92% 29.94 in 10.0 mi North - - N/A   Drizzle
5:55 PM 59.4 °F 57.0 °F 92% 29.94 in 10.0 mi North - - N/A Rain Light Rain
6:15 PM 59.7 °F 57.7 °F 93% 29.93 in 10.0 mi North - - N/A   Overcast
6:55 PM 58.3 °F 57.6 °F 97% 29.94 in 10.0 mi North - - N/A Rain Light Rain
7:15 PM 58.1 °F 57.6 °F 98% 29.94 in 10.0 mi North - - N/A   Overcast
7:35 PM 57.7 °F 57.7 °F 100% 29.94 in 7.0 mi North - - N/A Rain Light Rain
7:55 PM 57.7 °F 57.7 °F 100% 29.95 in 10.0 mi North - - N/A   Overcast
8:15 PM 56.5 °F 55.6 °F 97% 29.96 in 10.0 mi North - - N/A Rain Light Rain
8:35 PM 55.2 °F 54.5 °F 97% 29.97 in 10.0 mi North - - N/A Rain Light Rain
8:55 PM 54.7 °F 54.5 °F 99% 29.98 in 3.0 mi North - - N/A Rain Heavy Rain
9:15 PM 53.8 °F 53.8 °F 100% 29.97 in 10.0 mi North - - N/A Rain Light Rain
9:35 PM 53.6 °F 53.6 °F 100% 29.96 in 10.0 mi North - - N/A Rain Light Rain
9:55 PM 53.8 °F 53.8 °F 100% 29.98 in 10.0 mi North - - N/A   Mostly Cloudy
10:15 PM 52.7 °F 52.7 °F 100% 29.98 in 7.0 mi North - - N/A   Scattered Clouds
10:35 PM 51.8 °F 51.8 °F 100% 29.99 in 3.0 mi North - - N/A   Scattered Clouds
10:55 PM 50.9 °F 50.9 °F 100% 29.98 in 2.5 mi North - - N/A   Mostly Cloudy
11:15 PM 51.3 °F 51.3 °F 100% 29.99 in 0.5 mi North - - N/A Fog Fog
11:35 PM 51.8 °F 51.8 °F 100% 29.98 in 1.0 mi North - - N/A   Overcast
11:55 PM 51.3 °F 51.3 °F 100% 29.98 in 10.0 mi North - - N/A   Overcast